Location: Peebles
(55.6412°N, 3.1714°W)
Time: 04:06:35
(UTC+01:00)

Envisat - Pass Details

Date: 21 August 2022
Orbit: 763 x 765 km, 98.2° (Epoch: 30 September)

Event Time Altitude Azimuth Distance (km) Brightness Sun altitude
Rises 04:59:46 0° 20° (NNE) 3,247 7.3 -7.8°
Reaches altitude 10° 05:02:19 10° 30° (NNE) 2,316 6.7 -7.5°
Maximum altitude 05:06:55 33° 94° (E) 1,271 4.8 -7.0°
Drops below altitude 10° 05:11:29 10° 158° (SSE) 2,299 5.4 -6.4°
Sets 05:13:59 0° 168° (SSE) 3,220 6.0 -6.1°
